Location: Sunny Point
(33.0946°N, 85.0574°W)
Time: 07:08:37
(UTC+00:00)

Envisat - Pass Details

Date: 21 May 2024
Orbit: 762 x 764 km, 98.3° (Epoch: 16 June)

Event Time Altitude Azimuth Distance (km) Brightness Sun altitude
Rises 07:52:28 0° 31° (NNE) 3,229 7.5 -27.6°
Reaches altitude 10° 07:55:23 10° 48° (NE) 2,298 6.4 -27.2°
Maximum altitude 07:59:02 20° 95° (E) 1,714 5.1 -26.7°
Enters shadow 08:01:48 13° 133° (SE) 2,067 5.2 -26.4°
